Regional Weather Roundup
Issued by NWS Cleveland, OH

Home | Current Version | Previous Version | Graphics & Text | Print | Product List | Glossary On
Versions: 1 2 3 4 5 6 7 8 9 10 11 12 13 14 15 16 17 18 19 20 21 22 23 24 25 26 27 28 29 30 31 32 33 34 35 36 37 38 39 40 41 42 43 44 45 46 47 48 49 50
000
ASUS41 KCLE 301202
RWRCLE
OHIO REGIONAL WEATHER ROUNDUP
NATIONAL WEATHER SERVICE CLEVELAND, OH
800 AM EDT TUE AUG 30 2016

NOTE: "FAIR" INDICATES FEW OR NO CLOUDS BELOW 12,000 FEET WITH NO
SIGNIFICANT WEATHER AND/OR OBSTRUCTIONS TO VISIBILITY.

OHZ001>008-015>018-024>027-034-035-043-044-301300-
   NORTHWEST OHIO

CITY           SKY/WX    TMP DP  RH WIND       PRES   REMARKS
DEFIANCE       FAIR      65  62  90 CALM      30.19R
FINDLAY        FAIR      63  58  83 CALM      30.18R
TOLEDO EXPRESS FAIR      62  62 100 CALM      30.19R
TOLEDO EXEC    FAIR      64  62  93 CALM      30.19S
LIMA           FAIR      65  62  90 SE3       30.19R
$$

OHZ009>014-019>023-028>033-038-089-301300-
   NORTHEAST OHIO

CITY           SKY/WX    TMP DP  RH WIND       PRES   REMARKS
CLE-HOPKINS    FAIR      64  57  78 CALM      30.20F
CLE-LAKEFRONT  FAIR      67  58  72 S9        30.17F
CUY CO. ARPT   SUNNY     68  63  83 SE7       30.19F
LORAIN-ELYRIA  FAIR      58  57  97 CALM      30.20S
ASHTABULA      FAIR      59  59 100 CALM      30.21F
AKRON-CANTON   FAIR      65  57  75 E5        30.20S
WOOSTER        FAIR      59  58  96 CALM      30.21R
MANSFIELD      FAIR      66  56  70 SE6       30.21R
YOUNGSTOWN     FAIR      60  58  92 E5        30.20F
$$

OHZ042-051>053-060>062-070>072-077>081-301300-
  SOUTHWEST OHIO

CITY           SKY/WX    TMP DP  RH WIND       PRES   REMARKS
CINC-COVINGTON FAIR      72  69  90 E5        30.16S
CINC-LUNKEN    FAIR      67  67 100 CALM      30.16S
HAMILTON       FAIR      68  66  93 CALM      30.18R
DAYTON         FAIR      68  64  87 CALM      30.20R
WRIGHT-PAT AFB MOSUNNY   68  64  89 NW1       30.18R
DAYTON GENERAL FAIR      68  63  84 E3        30.18R
WILMINGTON     FAIR      66  64  93 NE3       30.18R
$$

OHZ036-037-039>041-045>050-054>059-063>069-073>076-082>088-301300-
  CENTRAL AND SOUTHEAST OHIO

CITY           SKY/WX    TMP DP  RH WIND       PRES   REMARKS
COLUMBUS       FAIR      66  61  84 NE3       30.17S
OSU AIRPORT    FAIR      65  62  90 N3        30.18S
BOLTON FIELD   SUNNY     61  61 100 CALM      30.19S
RICKENBACK AFB FAIR      65  62  90 NE3       30.17S
NEWARK         FAIR      62  61  96 CALM      30.19R
MARION         FAIR      64  58  80 S3        30.20R
LANCASTER      FAIR      64  63  96 CALM      30.18S
ZANESVILLE     FAIR      61  60  97 CALM      30.18F
NEW PHILLY     FAIR      63  57  81 CALM      30.20S
$$




USA.gov is the U.S. government's official web portal to all federal, state and local government web resources and services.